User: anonymous   Login
Location: General Nathan Twining Observatory
(34.5931°N, 106.8201°W)
Time: 01:02:43
(UTC-07:00)
Language:

Iridium 2 - Orbit

View from above orbital plane
View from above orbital plane
View from above satellite
View from above satellite

Ground track
Ground track

The orbit data is extracted from the following two-line orbital elements,

1 25527U 98066A   14327.30408281  .00008886  00000-0  55022-3 0  4524
2 25527 085.5341 223.0811 0008589 288.2748 207.2793 15.09625701876114
Epoch (UTC): 23 November 2014 07:17:52
Eccentricity: 0.0008589
inclination: 85.5341°
perigee height: 531 km
apogee height: 543 km
right ascension of ascending node: 223.0811°
argument of perigee: 288.2748°
revolutions per day: 15.09625701
mean anomaly at epoch: 207.2793°
orbit number at epoch: 87611

The dashed part of the orbit path shows where the satellite is in the earth's shadow,  

DLR